アトラス彗星

C/2021 G2 ( ATLAS )

English version
Home page
Updated on October 24, 2024

---------------------------------------------------------------------

・ プロフィール

発見日 2021年4月11日
発見光度 19.3等
発見者 Asteroid Terrestrial-Impact Last Alert System (ATLAS) search program

・ 写真集

・ 軌道要素

Epoch 2024 Oct. 17.0 TT = JDT 2460600.5
T 2024 Sept.  9.19400 TT                                Rudenko
q   4.9823901            (2000.0)            P               Q
z  -0.0000620      Peri.  343.27605     -0.84714336     +0.20048764
 +/-0.0000002      Node   221.09519     -0.35996003     -0.89775000
e   1.0003090      Incl.   48.47274     -0.39086687     +0.39223672
>From 1465 observations 2021 Sept. 29-2024 Aug. 16, mean residual 0".3.

・ 星図

・ 光度変化

        m1 = 3.5 + 5 logΔ + 10.0 log r

---------------------------------------------------------------------

軌道要素はM.P.E.C. 2024-Q20に掲載されたものです。
星図はステラナビゲータ Ver.10 (アストロアーツ) で作成したものです。
光度グラフはComet for Windowsで作成したものです。

---------------------------------------------------------------------

Copyright(C) Seiichi Yoshida (comet@aerith.net). All rights reserved.